Weather History for KJAN - March, 2014

Change the Weather History Date:

Tuesday, March 18, 2014

  Actual Average Record
Temperature  
Mean Temperature 53 °F 58 °F  
Max Temperature 68 °F 69 °F 90 °F (1908)
Min Temperature 38 °F 46 °F 28 °F (1960)
Degree Days  
Heating Degree Days 12 8  
Month to date heating degree days 240 186  
Since 1 July heating degree days 2506 2178  
Cooling Degree Days 0 1  
Month to date cooling degree days 0 15  
Year to date cooling degree days 6 25  
Growing Degree Days 2 (Base 50)    
Moisture  
Dew Point 39 °F    
Average Humidity 64    
Maximum Humidity 85    
Minimum Humidity 42    
Precipitation  
Precipitation 0.00 in 0.16 in 1.82 in (1951)
Month to date precipitation 1.91 2.89  
Year to date precipitation 8.96 12.62  
Sea Level Pressure  
Sea Level Pressure 29.89 in    
Wind  
Wind Speed 8 mph (SSE)    
Max Wind Speed 17 mph    
Max Gust Speed 21 mph    
Visibility 10 miles    
Events      
T = Trace of Precipitation, MM = Missing Value Source: NWS Daily Summary

Daily Weather History Graph

Daily Weather History Graph

Search for Another Location

Airport or City:

Trip Planner

Search our weather history database for the weather conditions in past years. The results will help you decide how hot, cold, wet, or windy it might be!

Date:

Astronomy

Mar. 18, 2014 Rise Set
Actual Time 7:06 AM CDT 7:10 PM CDT
Civil Twilight 6:42 AM CDT 7:34 PM CDT
Nautical Twilight 6:13 AM CDT 8:03 PM CDT
Astronomical Twilight 5:44 AM CDT 8:32 PM CDT
Moon 9:18 PM CDT (3/18) 8:03 AM CDT (3/18)
Length of Visible Light 12h 52m
Length of Day
12h 03m
Waning Gibbous, 96% of the Moon is Illuminated
Mar 18
Waning Gibbous
Mar 23
Last Quarter
Mar 30
New
Apr 7
First Quarter
Apr 15
Full

Hourly Weather History & Observations

Time (CDT) Temp. Windchill Dew Point Humidity Pressure Visibility Wind Dir Wind Speed Gust Speed Precip Events Conditions
12:54 AM 39.0 °F - 35.1 °F 86% 29.89 in 10.0 mi Calm Calm - N/A   Overcast
1:54 AM 39.9 °F - 36.0 °F 86% 29.87 in 10.0 mi Calm Calm - N/A   Overcast
2:54 AM 39.0 °F - 35.1 °F 86% 29.84 in 10.0 mi Calm Calm - N/A   Overcast
3:47 AM 39.2 °F - 35.6 °F 87% 29.83 in 10.0 mi Calm Calm - N/A   Overcast
3:54 AM 39.9 °F - 36.0 °F 86% 29.84 in 10.0 mi Calm Calm - N/A   Overcast
4:54 AM 39.9 °F 37.8 °F 36.0 °F 86% 29.85 in 10.0 mi South 3.5 mph - N/A   Overcast
5:54 AM 39.0 °F 35.7 °F 36.0 °F 89% 29.88 in 10.0 mi South 4.6 mph - N/A   Overcast
6:52 AM 39.2 °F 33.0 °F 35.6 °F 87% 29.92 in 10.0 mi SSW 9.2 mph - N/A   Overcast
6:54 AM 39.9 °F 33.9 °F 36.0 °F 86% 29.93 in 10.0 mi SSW 9.2 mph - N/A   Overcast
7:54 AM 39.9 °F 35.1 °F 36.0 °F 86% 29.94 in 10.0 mi SSW 6.9 mph - N/A   Overcast
8:54 AM 42.1 °F 39.2 °F 36.0 °F 79% 29.95 in 10.0 mi SSW 4.6 mph - N/A   Overcast
9:54 AM 44.1 °F 39.0 °F 37.0 °F 76% 29.96 in 10.0 mi SSE 9.2 mph - N/A   Overcast
10:54 AM 48.0 °F - 39.0 °F 71% 29.96 in 10.0 mi SE 9.2 mph - N/A   Mostly Cloudy
11:22 AM 48.2 °F - 39.2 °F 71% 29.94 in 10.0 mi SSE 8.1 mph - N/A   Scattered Clouds
11:54 AM 51.1 °F - 39.9 °F 66% 29.94 in 10.0 mi ESE 5.8 mph - N/A   Partly Cloudy
12:54 PM 55.9 °F - 39.9 °F 55% 29.92 in 10.0 mi SE 6.9 mph - N/A   Partly Cloudy
1:54 PM 61.0 °F - 42.1 °F 50% 29.88 in 10.0 mi ESE 5.8 mph - N/A   Clear
2:54 PM 64.0 °F - 41.0 °F 43% 29.86 in 10.0 mi ESE 11.5 mph 16.1 mph N/A   Clear
3:54 PM 66.0 °F - 42.1 °F 42% 29.84 in 10.0 mi South 15.0 mph - N/A   Clear
4:54 PM 66.9 °F - 42.1 °F 40% 29.83 in 10.0 mi SSE 16.1 mph - N/A   Clear
5:54 PM 66.0 °F - 42.1 °F 42% 29.83 in 10.0 mi SSE 13.8 mph - N/A   Clear
6:54 PM 63.0 °F - 42.1 °F 46% 29.86 in 10.0 mi South 11.5 mph - N/A   Clear
7:54 PM 57.0 °F - 43.0 °F 59% 29.86 in 10.0 mi SSE 6.9 mph - N/A   Clear
8:54 PM 57.9 °F - 43.0 °F 58% 29.89 in 10.0 mi South 9.2 mph - N/A   Clear
9:54 PM 57.0 °F - 44.1 °F 62% 29.92 in 10.0 mi South 13.8 mph 20.7 mph N/A   Clear
10:54 PM 54.0 °F - 45.0 °F 72% 29.93 in 10.0 mi South 13.8 mph - N/A   Clear
11:54 PM 53.1 °F - 45.0 °F 74% 29.94 in 10.0 mi South 10.4 mph - N/A   Clear